[[{"header":{"parameterUnit":"m.s-1","parameterCategory":1,"la1":30.2991,"la2":30.254,"lo1":-89.0895,"lo2":-89.0444,"dy":0.0017,"dx":0.0017,"nx":28,"ny":28,"refTime":"2025-07-15T21:00:00:Z","depth":0,"parameterNumber":2,"parameterNumberName":"U-component_of_WINDS"},"data":[0,0,0,0,0,0,0,0,0,0,0,0,0,0,0,0,0,0,0,0,0,0,0,0,0,0,0,0,0,0,0,0,0,0,0,0,0,0,0,0,0,0,0,0,0,0,0,0,0,0,0,0,0,0,0,0,0,0,1.1695,1.1696,0,1.1753,1.1754,1.1754,1.1733,1.1731,1.173,1.1729,1.179,1.1793,1.1796,0,0,0,0,0,0,0,0,0,0,0,0,0,1.1568,1.1571,1.1695,1.1696,1.1697,1.1753,1.1754,1.1755,1.1733,1.1731,1.173,1.1728,1.1789,1.1793,1.1796,0,0,0,0,0,0,0,0,0,0,0,0,0,1.1625,1.1572,1.1695,1.1693,1.1693,1.1753,1.1754,1.1755,1.1733,1.1731,1.1729,1.1727,1.1788,1.1792,1.1797,1.1863,0,0,1.181,1.1812,0,0,0,0,0,0,0,0,1.1622,1.1629,1.1692,1.1693,1.1693,1.1734,1.1732,1.1791,1.1734,1.1718,1.1729,1.1726,1.1773,1.1779,1.1794,1.1866,1.1869,1.181,1.1813,1.1815,1.1816,0,0,0,0,0,0,0,1.1618,1.1627,1.1718,1.1693,1.1694,1.1689,1.1695,1.1743,1.1756,1.1719,1.1718,1.1725,1.1773,1.179,1.1795,1.187,1.181,1.1814,1.1817,1.1818,1.2001,1.2003,0,0,0,0,0,0,1.1613,1.1624,1.1716,1.172,1.1652,1.1693,1.17,1.1723,1.1756,1.1759,1.1726,1.1724,1.1783,1.179,1.1797,1.1878,1.1815,1.1819,1.1821,1.1998,1.2001,1.2004,0,0,0,0,0,0,1.1611,1.1622,1.1714,1.1671,1.1683,1.1698,1.1724,1.1725,1.1742,1.1761,1.1763,1.1741,1.1782,1.1791,1.1847,1.188,1.1821,1.1825,1.1996,1.1999,1.2002,1.204,0,0,0,0,0,0,1.1607,1.1621,1.1646,1.1672,1.1685,1.1762,1.1726,1.1727,1.1749,1.1746,1.1775,1.1778,1.1781,1.1841,1.1851,1.1885,1.1828,1.1993,1.1997,1.2001,1.2036,1.2045,1.2052,0,0,0,0,0,1.1603,1.1654,1.1647,1.1658,1.1716,1.1764,1.1772,1.1773,1.1751,1.1777,1.179,1.1777,1.1875,1.1847,1.1858,1.1894,1.1991,1.1996,1.2001,1.2033,1.2043,1.2052,0,0,0,0,0,0,1.1632,1.1658,1.165,1.1711,1.1736,1.176,1.1793,1.1784,1.1816,1.1811,1.1813,1.182,1.1878,1.1891,1.186,1.1961,1.193,1.1937,1.195,1.196,1.1967,1.1963,1.1831,0,0,0,0,0,1.1645,1.1681,1.1702,1.1754,1.1767,1.1778,1.1799,1.1798,1.1823,1.1834,1.185,1.1876,1.1913,1.1937,1.1971,1.2038,1.2045,1.2068,1.2076,1.2082,1.2089,1.2127,1.2138,1.202,1.202,1.202,0,0,1.1674,1.1692,1.1715,1.1761,1.178,1.1818,1.1787,1.1828,1.1857,1.184,1.1894,1.1907,1.1936,1.1998,1.2026,1.2011,1.2123,1.2089,1.2093,1.2097,1.2133,1.2144,1.2154,1.2024,1.2023,1.2022,0,0,1.1746,1.1763,1.1809,1.1828,1.1857,1.1864,1.1875,1.1901,1.1909,1.1963,1.1952,1.1986,1.2048,1.207,1.2089,1.2169,1.216,1.2181,1.2222,1.2258,1.2268,1.2276,1.2306,1.2316,1.2187,1.2187,1.2188,0,1.1778,1.1834,1.1834,1.1876,1.1897,1.1884,1.1931,1.195,1.1989,1.2004,1.1986,1.2065,1.2084,1.2151,1.2171,1.2186,1.22,1.2178,1.2266,1.2274,1.2282,1.2311,1.2322,1.219,1.219,1.2189,1.2189,0,1.1873,1.1912,1.1946,1.1983,1.2008,1.2053,1.206,1.2086,1.2083,1.2092,1.2148,1.2169,1.2209,1.2224,1.2222,1.2292,1.2282,1.2265,1.2234,1.2296,1.2323,1.2334,1.2193,1.2193,1.2192,1.2191,0,0,1.1965,1.2002,1.2014,1.2032,1.2062,1.2093,1.2138,1.2175,1.2198,1.2225,1.2263,1.2317,1.2302,1.2323,1.2323,1.2355,1.2419,1.2335,1.2336,1.2351,1.2499,1.2512,1.2524,1.2412,1.2415,1.2416,1.2497,0,1.204,1.2118,1.2119,1.2191,1.2228,1.2216,1.2255,1.2278,1.2288,1.2322,1.2332,1.2371,1.2347,1.2361,1.2392,1.2405,1.2449,1.2399,1.2449,1.2451,1.2444,1.2538,1.2552,1.2627,1.2507,1.2509,1.251,0,1.2138,1.2168,1.2244,1.227,1.2285,1.232,1.2356,1.2387,1.2414,1.2419,1.2444,1.2439,1.2486,1.2453,1.2518,1.2483,1.2504,1.2514,1.2517,1.2522,1.2485,1.2548,1.2651,1.2663,1.2527,1.2525,1.2524,0,1.22,1.2259,1.2312,1.2327,1.2358,1.2383,1.2398,1.2423,1.2446,1.2477,1.2492,1.2528,1.2548,1.2576,1.2582,1.2557,1.2648,1.2615,1.2654,1.2654,1.2675,1.2674,1.2784,1.2686,1.2686,1.2686,1.2686,0,1.2284,1.2331,1.234,1.2373,1.2425,1.2427,1.2479,1.2492,1.2514,1.255,1.2541,1.2575,1.258,1.2615,1.262,1.2674,1.2683,1.2689,1.269,1.269,1.269,1.2705,1.27,1.2689,1.2688,1.2688,1.2687,0,1.2362,1.237,1.2427,1.2452,1.2459,1.2497,1.2519,1.2551,1.2559,1.2605,1.2616,1.263,1.2671,1.2679,1.2728,1.2731,1.2796,1.2791,1.2787,1.2787,1.2826,1.2823,1.2951,1.2969,1.2858,1.2859,1.286,0,1.2416,1.2452,1.2481,1.2504,1.2519,1.2556,1.258,1.2583,1.2607,1.2641,1.2669,1.2709,1.2742,1.2808,1.2824,1.2861,1.2858,1.29,1.2864,1.2863,1.286,1.2858,1.2863,1.2908,1.2909,1.291,1.2911,0,1.2512,1.2514,1.2547,1.2583,1.2611,1.2639,1.2665,1.2685,1.2691,1.272,1.2762,1.2787,1.2837,1.2877,1.2915,1.293,1.2923,1.2922,1.2933,1.2935,1.2931,1.2935,1.2807,1.2919,1.2918,1.2918,1.2917,1.2917,1.258,1.2612,1.2637,1.2675,1.2695,1.2721,1.2752,1.2765,1.2799,1.284,1.2839,1.2886,1.2912,1.2962,1.298,1.3017,1.3003,1.302,1.3024,1.3028,1.3033,1.2924,1.3023,1.3023,1.3023,1.3023,1.3023,0,1.2676,1.2692,1.2727,1.2764,1.2794,1.2783,1.2812,1.2838,1.2879,1.2904,1.2936,1.2985,1.3024,1.3042,1.3081,1.3107,1.3105,1.3118,1.3116,1.312,1.3041,1.3028,1.3119,1.3119,1.3119,1.3119,1.3119,1.3119,1.273,1.2783,1.2789,1.2852,1.2868,1.2912,1.293,1.2954,1.2974,1.3028,1.3061,1.3072,1.3095,1.3136,1.3171,1.3176,1.3191,1.3206,1.3209,1.3135,1.3126,1.3116,1.3104,1.3209,1.3209,1.3285,1.3286,1.3286]},{"header":{"parameterUnit":"m.s-1","parameterCategory":1,"la1":30.2991,"la2":30.254,"lo1":-89.0895,"lo2":-89.0444,"dy":0.0017,"dx":0.0017,"nx":28,"ny":28,"refTime":"2025-07-15T21:00:00:Z","depth":0,"parameterNumber":3,"parameterNumberName":"V-component_of_WINDS"},"data":[0,0,0,0,0,0,0,0,0,0,0,0,0,0,0,0,0,0,0,0,0,0,0,0,0,0,0,0,0,0,0,0,0,0,0,0,0,0,0,0,0,0,0,0,0,0,0,0,0,0,0,0,0,0,0,0,0,0,-0.3641,-0.3641,0,-0.3658,-0.3659,-0.3659,-0.3703,-0.3704,-0.3705,-0.3705,-0.3723,-0.3723,-0.3722,0,0,0,0,0,0,0,0,0,0,0,0,0,-0.3648,-0.3647,-0.3641,-0.3641,-0.3641,-0.3658,-0.3659,-0.3659,-0.3703,-0.3704,-0.3705,-0.3706,-0.3723,-0.3723,-0.3722,0,0,0,0,0,0,0,0,0,0,0,0,0,-0.3653,-0.3647,-0.3641,-0.3665,-0.3668,-0.3658,-0.3659,-0.3659,-0.3702,-0.3704,-0.3705,-0.3706,-0.3723,-0.3723,-0.3722,-0.369,0,0,-0.372,-0.372,0,0,0,0,0,0,0,0,-0.3653,-0.3653,-0.3661,-0.3664,-0.3666,-0.368,-0.3668,-0.3669,-0.3702,-0.3689,-0.3705,-0.3707,-0.3707,-0.3708,-0.3708,-0.3691,-0.3692,-0.372,-0.372,-0.372,-0.3719,0,0,0,0,0,0,0,-0.3652,-0.3652,-0.3648,-0.3662,-0.3664,-0.3676,-0.3678,-0.3668,-0.369,-0.369,-0.3694,-0.3695,-0.3709,-0.3709,-0.3709,-0.3692,-0.372,-0.372,-0.3719,-0.3719,-0.3655,-0.3654,0,0,0,0,0,0,-0.3648,-0.3652,-0.3647,-0.3648,-0.3663,-0.3675,-0.3677,-0.3674,-0.369,-0.3694,-0.3694,-0.3697,-0.3709,-0.371,-0.371,-0.3677,-0.372,-0.3719,-0.3719,-0.3656,-0.3655,-0.3653,0,0,0,0,0,0,-0.3648,-0.3647,-0.3647,-0.3651,-0.3652,-0.3673,-0.3669,-0.3674,-0.3674,-0.3693,-0.3697,-0.369,-0.371,-0.3711,-0.3696,-0.3678,-0.3719,-0.3718,-0.3658,-0.3656,-0.3654,-0.361,0,0,0,0,0,0,-0.3648,-0.3647,-0.3634,-0.365,-0.3651,-0.3631,-0.3668,-0.3673,-0.3672,-0.3677,-0.369,-0.3694,-0.3711,-0.3697,-0.3695,-0.3678,-0.3718,-0.366,-0.3657,-0.3655,-0.3613,-0.3606,-0.3601,0,0,0,0,0,-0.3648,-0.362,-0.3634,-0.3633,-0.3636,-0.363,-0.3631,-0.3652,-0.3671,-0.3659,-0.3672,-0.3693,-0.368,-0.3695,-0.3694,-0.3676,-0.3661,-0.3658,-0.3655,-0.3616,-0.3608,-0.3601,0,0,0,0,0,0,-0.36,-0.3623,-0.3638,-0.3614,-0.362,-0.3638,-0.3623,-0.3642,-0.3643,-0.3647,-0.3673,-0.3676,-0.3658,-0.3666,-0.3681,-0.3649,-0.3674,-0.3671,-0.3645,-0.3638,-0.3632,-0.3631,-0.3717,0,0,0,0,0,-0.3587,-0.3581,-0.36,-0.3577,-0.358,-0.3601,-0.3599,-0.3615,-0.3623,-0.3626,-0.3637,-0.3644,-0.3642,-0.364,-0.3639,-0.3614,-0.3619,-0.3602,-0.3596,-0.3591,-0.3588,-0.358,-0.3573,-0.3643,-0.3643,-0.3643,0,0,-0.356,-0.3571,-0.3565,-0.3568,-0.3575,-0.3569,-0.3603,-0.3594,-0.359,-0.3624,-0.3612,-0.3621,-0.3631,-0.3612,-0.3604,-0.3617,-0.357,-0.3587,-0.3583,-0.3583,-0.3576,-0.3569,-0.3563,-0.3641,-0.3642,-0.3642,0,0,-0.3507,-0.3513,-0.3497,-0.3504,-0.3514,-0.3529,-0.3525,-0.3541,-0.3549,-0.3537,-0.3564,-0.356,-0.3555,-0.3562,-0.3564,-0.3519,-0.3539,-0.3517,-0.3487,-0.3478,-0.3472,-0.3468,-0.3454,-0.3449,-0.3514,-0.3514,-0.3514,0,-0.3471,-0.3462,-0.3486,-0.3477,-0.3479,-0.3511,-0.3496,-0.3501,-0.351,-0.3511,-0.3526,-0.3523,-0.3531,-0.3517,-0.3506,-0.3506,-0.3504,-0.3516,-0.3471,-0.3467,-0.3463,-0.345,-0.3445,-0.3512,-0.3512,-0.3512,-0.3512,0,-0.342,-0.3414,-0.3399,-0.341,-0.341,-0.3397,-0.342,-0.3418,-0.3435,-0.3449,-0.3439,-0.345,-0.3454,-0.3451,-0.3466,-0.344,-0.3448,-0.3466,-0.3493,-0.3453,-0.3442,-0.3437,-0.3508,-0.3509,-0.351,-0.351,0,0,-0.3336,-0.3362,-0.3356,-0.3363,-0.3379,-0.3375,-0.3365,-0.337,-0.3369,-0.3374,-0.3369,-0.3366,-0.3384,-0.3387,-0.3404,-0.3396,-0.3363,-0.3416,-0.3417,-0.3408,-0.3339,-0.3326,-0.332,-0.3377,-0.3376,-0.3375,-0.3339,0,-0.3289,-0.3274,-0.3297,-0.3277,-0.3274,-0.3305,-0.3298,-0.3307,-0.3321,-0.332,-0.3335,-0.3334,-0.3357,-0.336,-0.3353,-0.3369,-0.335,-0.3371,-0.3374,-0.3373,-0.3372,-0.3314,-0.3299,-0.3264,-0.3334,-0.3334,-0.3333,0,-0.3231,-0.3236,-0.3217,-0.3238,-0.3237,-0.3229,-0.3238,-0.3236,-0.3249,-0.3259,-0.3265,-0.3286,-0.328,-0.3305,-0.3298,-0.3312,-0.3315,-0.3323,-0.3322,-0.3324,-0.3352,-0.3317,-0.3253,-0.3249,-0.3326,-0.3326,-0.3327,0,-0.3175,-0.3178,-0.3168,-0.3172,-0.3194,-0.3189,-0.3198,-0.3212,-0.3215,-0.3222,-0.3225,-0.323,-0.3234,-0.3239,-0.3262,-0.3277,-0.3254,-0.328,-0.3264,-0.3264,-0.3259,-0.3259,-0.3197,-0.3257,-0.3257,-0.3257,-0.3257,0,-0.3121,-0.3109,-0.3144,-0.3137,-0.3125,-0.3152,-0.314,-0.3153,-0.3165,-0.3164,-0.3191,-0.3189,-0.3218,-0.322,-0.3237,-0.3231,-0.3232,-0.3242,-0.3247,-0.3241,-0.324,-0.3244,-0.3247,-0.3255,-0.3256,-0.3256,-0.3256,0,-0.3057,-0.308,-0.3071,-0.3095,-0.31,-0.3091,-0.3111,-0.3108,-0.3124,-0.3121,-0.3122,-0.3148,-0.3152,-0.3175,-0.3183,-0.3195,-0.3184,-0.3193,-0.318,-0.3184,-0.3168,-0.317,-0.3108,-0.3103,-0.3163,-0.3163,-0.3162,0,-0.3022,-0.3014,-0.3037,-0.3038,-0.3047,-0.3048,-0.3052,-0.3079,-0.3081,-0.3097,-0.3092,-0.3098,-0.3105,-0.311,-0.313,-0.3137,-0.3148,-0.3126,-0.3149,-0.3144,-0.3151,-0.3152,-0.3153,-0.3121,-0.312,-0.3119,-0.3119,0,-0.2958,-0.2971,-0.2975,-0.2984,-0.2988,-0.2996,-0.3006,-0.3005,-0.3036,-0.3038,-0.3043,-0.3048,-0.3058,-0.3065,-0.3077,-0.3087,-0.3109,-0.3112,-0.3109,-0.3103,-0.3097,-0.3103,-0.3169,-0.3113,-0.3114,-0.3114,-0.3114,-0.3115,-0.291,-0.2905,-0.2922,-0.2927,-0.2938,-0.2947,-0.2946,-0.2963,-0.2968,-0.2979,-0.2995,-0.2998,-0.3015,-0.3033,-0.3042,-0.3046,-0.3058,-0.3054,-0.3053,-0.3052,-0.305,-0.3095,-0.3048,-0.3048,-0.3049,-0.3049,-0.3049,0,-0.285,-0.2863,-0.2867,-0.2882,-0.2886,-0.2907,-0.292,-0.2922,-0.2925,-0.2939,-0.2945,-0.2953,-0.296,-0.2982,-0.2992,-0.2992,-0.3002,-0.2994,-0.2995,-0.2998,-0.3037,-0.304,-0.2985,-0.2985,-0.2985,-0.2985,-0.2985,-0.2985,-0.2819,-0.2814,-0.2829,-0.2831,-0.2844,-0.2848,-0.2855,-0.2865,-0.2876,-0.2883,-0.289,-0.2905,-0.2922,-0.2935,-0.2944,-0.295,-0.2953,-0.2942,-0.2952,-0.2988,-0.2994,-0.3,-0.3003,-0.2942,-0.2942,-0.2913,-0.2913,-0.2912]}]]